Flag for Cameroon Weather past 2 weeks in Yaoundé, Cameroon

Now
72 °F

Thunderstorms. Broken clouds.


Feels Like: 67 °F
Forecast: 68 / 86 °F
Wind: 3 mph from West

Location: Yaounde Airport


UV Index: 3 (Moderate)

Visibility: 5 mi


Pressure: 29.89 "Hg

Humidity: 94%

Dew point: 70 °F

Location of YaoundéLocation

Historic Weather in Yaoundé

°F

Yaoundé temperature yesterday

Maximum temperature yesterday: 84 °F (at 12:00 PM)
Minimum temperature yesterday: 68 °F (at 5:00 AM)
Average temperature yesterday: 76 °F

Past Weeks' High & Low Weather Summary

 TemperatureHumidityPressure
High91 °F (Apr 3, 3:00 PM)100% (Apr 11, 6:00 AM)30.07 "Hg (Apr 11, 6:00 AM)
Low64 °F (Apr 14, 6:00 AM)43% (Apr 3, 5:00 PM)29.86 "Hg (Apr 12, 3:00 PM)
Average76 °F79%29.97 "Hg
* Reported Apr 3 3:00 PM — Apr 18 3:00 PM, Yaoundé, Weather by CustomWeather, © 2014

Note: Actual official high and low records may vary slightly from our data, if they occured in-between our weather recording intervals... More about our weather records

Advertising

Historic Weather Conditions — Data for Previous 24 hours

 ConditionsComfort  
Time TempWeatherWind HumidityBarometerVisibility
3:00 PM
Apr 18
73 °FThunderstorms. Broken clouds.3 mph89%29.92 "Hg5 mi
2:00 PM75 °FThunderstorms. Broken clouds.No wind89%29.92 "Hg5 mi
1:00 PM88 °FPartly sunny.3 mph55%29.92 "HgN/A
12:00 PM86 °FPartly sunny.3 mph62%29.98 "HgN/A
11:00 AM82 °FPartly sunny.3 mph66%30.01 "HgN/A
10:00 AM81 °FPartly sunny.No wind74%30.01 "HgN/A
9:00 AM75 °FPartly sunny.3 mph83%30.01 "HgN/A
8:00 AM72 °FBroken clouds.3 mph94%30.01 "Hg5 mi
7:00 AM70 °FPartly sunny.No wind94%29.98 "Hg5 mi
6:00 AM68 °FPassing clouds.No wind100%29.98 "Hg5 mi
5:00 AM70 °FPassing clouds.No wind94%29.95 "HgN/A
4:00 AM70 °FPassing clouds.No wind94%29.92 "HgN/A
3:00 AM70 °FPassing clouds.No wind94%29.92 "HgN/A
2:00 AM70 °FThunderstorms. Passing clouds.3 mph94%29.92 "HgN/A
1:00 AM68 °FThunderstorms. Passing clouds.2 mph100%29.95 "HgN/A
12:00 AM70 °FThunderstorms. Passing clouds.No wind94%29.95 "HgN/A
11:00 PM
Apr 17
70 °FThunderstorms. Passing clouds.2 mph94%29.98 "HgN/A
10:00 PM70 °FThunderstorms. Passing clouds.No wind94%29.98 "HgN/A
9:00 PM72 °FPassing clouds.No wind88%29.95 "HgN/A
8:00 PM73 °FPassing clouds.No wind83%29.92 "HgN/A
7:00 PM73 °FThunderstorms. Partly cloudy.3 mph83%29.92 "HgN/A
6:00 PM75 °FThunderstorms. Broken clouds.3 mph83%29.89 "HgN/A
5:00 PM77 °FThunderstorms. Broken clouds.2 mph74%29.86 "HgN/A
Weather by CustomWeather, © 2014

See weather overview